Location: Maiden
(35.5760°N, 81.2120°W)
Time: 02:38:23
(UTC-04:00)

A-11 Canister half - Pass Details

Date: 10 August 2020
Orbit: 1527 x 1682 km, 47.3° (Epoch: 25 September)

Event Time Altitude Azimuth Distance (km) Brightness Sun altitude
Rises 21:03:30 0° 299° (WNW) 4,897 14.1 -9.1°
Reaches altitude 10° 21:07:05 10° 290° (WNW) 3,888 12.7 -9.8°
Maximum altitude 21:15:30 33° 232° (SW) 2,467 10.3 -11.3°
Drops below altitude 10° 21:23:42 10° 172° (S) 3,769 10.7 -12.8°
Enters shadow 21:26:46 - 164° (SSE) 4,623 11.1 -13.3°
Sets 21:27:08 0° 163° (SSE) 4,729 - -13.4°
